Location: Janikowice
(50.2846°N, 20.1680°E)
Time: 06:43:56
(UTC+00:00)

Daily predictions for brighter satellites

Satellite Brightness Start Highest point End
(mag) Time Altitude Azimuth Time Altitude Azimuth Time Altitude Azimuth
Cosmos 2263 Rocket 4.2 15:20:01 10° W 15:24:00 19° NW 15:28:00 10° N
ATLAS CENTAUR R/B 1.0 15:21:09 10° SW 15:24:36 77° NW 15:28:05 10° NE
Cosmos 1975 Rocket 3.9 15:21:00 10° N 15:24:46 28° ENE 15:28:31 10° SE
Cosmos 1844 Rocket 3.4 15:21:33 10° SW 15:26:59 53° NW 15:32:29 10° NNE
Cosmos 1733 Rocket 4.2 15:23:11 10° SSW 15:27:18 46° WNW 15:31:28 10° N
MOS 1 Rocket 4.2 15:25:01 10° ESE 15:28:24 23° ENE 15:31:54 10° N
CZ-4C R/B 2.3 15:27:46 10° WSW 15:32:10 62° NW 15:37:53 10° NE
UNK 4.2 15:28:02 10° NNE 15:32:27 43° E 15:36:50 10° S
Cosmos 1867 4.1 15:27:33 10° SW 15:32:55 59° NW 15:38:21 10° NE
Cosmos 921 Rocket 3.0 15:28:45 10° S 15:33:04 69° ESE 15:37:29 10° NNE
Cosmos 1763 Rocket 4.1 15:31:30 10° N 15:36:18 35° NE 15:41:00 10° ESE
Cosmos 540 Rocket 4.2 15:32:33 10° N 15:37:06 30° NE 15:41:36 10° ESE
Cosmos 1833 Rocket 2.7 15:32:37 10° NNW 15:38:18 77° ENE 15:43:57 10° SSE
ISS -1.4 15:40:00 10° SSE 15:41:24 12° SE 15:42:50 10° ESE
Cosmos 1269 Rocket 4.3 15:39:07 10° S 15:44:07 47° ESE 15:49:09 10° NNE
Cosmos 1140 Rocket 3.9 15:39:18 10° S 15:44:08 41° ESE 15:48:57 10° NE
CZ-2D R/B 3.1 15:41:48 10° SE 15:44:48 41° ENE 15:47:48 10° N
Cosmos 1025 Rocket 3.9 15:42:33 10° NNW 15:46:48 55° W 15:50:59 10° S
SWARM A 4.2 15:43:37 10° N 15:46:58 89° E 15:50:16 10° S
Thor Agena Rocket 3.8 15:43:18 10° SSE 15:48:35 81° WSW 15:53:53 10° NNW
Cosmos 1606 3.8 15:47:45 10° SW 15:50:10 30° WNW 15:52:36 10° N
Cosmos 1459 Rocket 4.4 15:44:35 10° SSW 15:50:52 70° WNW 15:57:14 10° N
SAR-Lupe-1 4.0 15:48:25 10° SSE 15:51:56 59° ENE 15:55:29 10° N
Meteor 1-28 Rocket 3.3 15:50:56 10° N 15:54:18 66° WNW 15:57:38 10° SSW
IGS 5A 3.8 15:50:40 10° S 15:54:37 66° W 15:58:37 10° NNW
RESURS DK-1 2.9 15:51:09 10° NNW 15:54:50 34° NE 15:58:31 10° ESE
DNEPR-1 R/B 4.5 15:54:05 10° NW 15:58:26 57° SW 16:03:26 10° SSE
BREEZE M DEB (TANK) 4.5 15:38:29 10° WSW 16:01:07 83° S 16:05:35 14° E
IRS-P3 4.1 15:57:42 10° SSE 16:02:56 62° ENE 16:08:13 10° N
SAR-Lupe-4 3.6 16:00:50 10° SSE 16:04:24 85° WSW 16:08:00 10° NNW
YAOGAN 1 3.4 16:05:30 10° ESE 16:09:08 28° ENE 16:12:47 10° N
PSLV R/B 4.3 16:07:13 10° ESE 16:10:38 27° ENE 16:14:04 10° N
SJ-12 3.7 16:09:22 10° SSE 16:13:10 88° WSW 16:16:59 10° NNW
Cosmos 2061 Rocket 4.0 16:07:05 10° S 16:13:22 79° E 16:19:38 10° NNE
ATLAS 2AS CENTAUR R/B 3.7 16:07:38 10° NW 16:13:30 29° NNE 16:17:37 17° ENE
Resurs 1-3 4.3 16:12:05 10° SE 16:15:51 31° ENE 16:19:38 10° N
CZ-2D R/B 3.8 16:13:47 10° SE 16:17:41 43° ENE 16:21:41 10° N
ARIANE 5 R/B 2.7 16:13:35 10° S 16:18:33 74° WSW 16:23:34 10° NNW
ARIANE 6 FM1 Upper Stage 4.4 16:16:15 10° WNW 16:19:24 22° NNW 16:22:10 12° NNE
Meteor 2-12 Rocket 4.4 16:13:30 10° N 16:19:38 69° ENE 16:25:39 10° SSE
Cosmos 2233 Rocket 4.1 16:14:57 10° S 16:21:15 85° W 16:27:37 10° N
SAR-Lupe-3 3.6 16:19:08 14° NNE 16:21:19 80° ESE 16:23:58 10° SSW
SJ 16-02 3.2 16:20:10 10° SE 16:21:10 13° ESE 16:21:10 13° ESE
Cosmos 1023 Rocket 4.4 16:18:10 10° SSW 16:23:21 89° ESE 16:28:30 10° NNE
Cosmos 2058 3.3 16:20:39 10° N 16:24:21 37° ENE 16:28:03 10° SE
Resurs 01 Rocket 3.1 16:26:28 19° NE 16:26:28 19° NE 16:28:48 10° NNE
Cosmos 468 Rocket 4.2 16:20:53 10° NNW 16:25:55 46° ENE 16:30:53 10° SE
Cosmos 1536 Rocket 4.2 16:22:30 10° N 16:26:31 32° ENE 16:30:29 10° SE
Cosmos 44 Rocket 4.2 16:23:04 10° S 16:27:07 28° ESE 16:28:34 24° E
SL-19 R/B 4.3 16:22:14 10° SE 16:27:13 47° ENE 16:32:12 10° N
IRAS Rocket 4.3 16:23:26 10° SE 16:28:51 56° ENE 16:34:16 10° N
SMAP 4.1 16:24:53 10° S 16:29:23 48° W 16:33:56 10° NNW
Aureole 3 Rocket 2.7 16:26:56 10° SSE 16:29:45 35° E 16:29:48 35° E
Cosmos 1464 Rocket 4.3 16:28:26 10° SSE 16:34:15 41° E 16:40:02 10° NNE
USA 215 4.4 16:28:43 10° SSE 16:34:51 42° SW 16:41:02 10° WNW
Cosmos 1812 3.0 16:37:20 10° S 16:39:11 31° SE 16:39:11 31° SE
Cosmos 2082 Rocket 2.2 16:34:51 10° NNW 16:40:24 58° NE 16:45:21 13° SE
Cosmos 1869 2.8 16:38:49 10° S 16:42:21 84° E 16:45:12 15° NNE
SPOT 1/Viking Rocket 3.4 16:38:11 10° SSE 16:43:21 79° ENE 16:48:35 10° NNW
Cosmos 2278 Rocket 2.3 16:40:14 10° S 16:45:44 55° ESE 16:49:09 23° NE
Cosmos 2034 Rocket 4.5 16:40:36 10° SSE 16:46:04 34° E 16:51:37 10° NNE
Cosmos 1943 Rocket 2.2 16:41:12 10° S 16:46:42 59° ESE 16:50:08 23° NE
Cosmos 407 Rocket 3.4 16:42:39 10° SSW 16:47:49 73° ESE 16:51:44 18° NNE
Cosmos 2084 Rocket 3.9 16:44:29 10° WSW 16:48:35 54° NW 16:50:44 26° NNE
SJ-7 4.0 16:45:02 10° SSE 16:48:41 69° ENE 16:52:22 10° N
CARTOSAT-1 4.3 16:50:45 32° NE 16:50:45 32° NE 16:53:43 10° N
Timation 1 Rocket 4.4 16:44:19 10° NNW 16:50:17 82° WSW 16:56:15 10° SSE
Cosmos 2344 4.0 16:43:11 10° NW 16:50:36 53° NE 16:56:03 25° E
NOAA 15 4.5 16:50:04 10° SSE 16:55:21 82° ENE 17:00:41 10° NNW
ATLAS 5 CENTAUR R/B 3.6 16:52:17 10° WNW 16:56:17 32° WSW 17:01:03 10° S
ATLAS CENTAUR R/B 3.3 16:58:01 10° WNW 17:00:14 16° NNW 17:01:34 13° N
Cosmos 1092 Rocket 4.4 16:55:49 10° N 17:01:38 38° ENE 17:02:33 36° E
SL-16 R/B 4.3 16:57:28 10° N 17:02:44 29° NW 17:07:59 10° WSW
BREEZE-M DEB (TANK) 3.0 17:00:19 10° WSW 17:02:57 76° SSE 17:04:23 43° ENE
Spot 4 Rocket 4.0 16:57:58 10° SSE 17:03:04 83° WSW 17:08:13 10° NNW
Cosmos 2151 Rocket 3.5 17:00:17 10° S 17:04:41 60° E 17:05:45 46° NE
MOS 1 Rocket 4.1 17:02:01 10° S 17:06:10 47° W 17:10:30 10° NNW
Cosmos 1072 Rocket 4.3 17:00:12 10° S 17:06:20 73° E 17:12:25 10° NNE
COSMOS 2406 3.3 17:01:34 10° NNW 17:07:09 53° NE 17:08:32 43° E
Cosmos 2026 Rocket 4.1 17:05:26 10° N 17:11:19 48° ENE 17:12:56 39° ESE
USA 281 3.4 17:09:14 36° ESE 17:11:27 50° NE 17:17:46 10° NNW
COSMO-SKYMED 1 2.3 17:10:36 52° NNE 17:11:34 80° ESE 17:15:41 10° SSW
SKYMED 2 3.7 17:08:26 12° N 17:12:26 74° WNW 17:16:46 10° SSW
BREEZE-M DEB (TANK) 2.7 17:13:30 10° WSW 17:16:22 71° SSE 17:17:13 56° ESE
ISS -2.5 17:14:20 10° SW 17:16:32 35° SSW 17:16:32 35° SSW
Cosmos 540 Rocket 4.4 17:13:52 10° NNW 17:18:48 48° WSW 17:23:41 10° S
Meteor 2-3 Rocket 3.7 17:14:15 10° N 17:19:54 57° ENE 17:20:43 52° ESE
CZ-4C R/B 3.7 17:17:18 10° WNW 17:21:37 26° NNW 17:24:06 20° NNE
Helios 1A Rocket 3.8 17:28:22 34° SW 17:28:22 34° SW 17:30:27 10° SSW
NOAA 6 4.1 17:23:44 10° S 17:28:53 77° WSW 17:34:03 10° NNW
RESURS DK-1 4.1 17:28:41 10° NW 17:32:12 30° WSW 17:35:25 11° S
Nadezhda 4 Rocket 4.1 17:26:24 10° NNW 17:32:42 75° W 17:38:54 10° S
SL-12 R/B(2) 4.4 17:24:38 10° SW 17:32:47 84° NW 17:39:16 25° NE
Cosmos 2297 Rocket 4.5 17:35:55 10° N 17:36:47 11° NNE 17:36:47 11° NNE
Cosmos 1627 Rocket 4.3 17:31:15 10° N 17:37:23 70° ENE 17:38:24 59° SE
Cosmos 2251 Rocket 3.5 17:33:20 10° SSW 17:38:37 79° WNW 17:39:54 53° N
YAOGAN 1 4.0 17:40:58 10° SSW 17:44:53 35° W 17:48:50 10° NNW
Cosmos 2195 Rocket 4.5 17:40:13 10° N 17:46:33 85° W 17:52:53 10° S
Cosmos 841 Rocket 3.6 17:50:33 10° NNW 17:55:38 71° W 17:55:38 71° W
SJ 16-02 3.2 17:56:03 10° SSW 17:57:46 23° SW 17:57:46 23° SW
Resurs 01 Rocket 3.3 18:03:53 27° NNW 18:03:53 27° NNW 18:05:59 10° NNW
ATLAS 2AS CENTAUR R/B 2.9 17:59:01 10° NW 18:05:02 57° NNE 18:05:02 57° NNE
Cosmos 44 Rocket 4.2 18:03:31 10° WSW 18:07:12 45° W 18:07:12 45° W
Cosmos 2082 Rocket 4.0 18:19:27 10° NW 18:24:07 28° WSW 18:27:17 17° SSW
Cosmos 2278 Rocket 3.6 18:25:01 10° WSW 18:30:06 33° NW 18:31:01 31° NNW
Cosmos 1943 Rocket 3.7 18:25:48 10° WSW 18:30:46 31° NW 18:31:40 30° NNW
USA 281 4.1 18:56:07 43° WSW 18:56:07 43° WSW 19:02:17 10° NW
Cosmos 2344 4.3 18:57:25 10° NW 19:05:17 56° WSW 19:06:06 55° SW
CZ-4C R/B 4.4 19:06:51 10° NW 19:09:03 20° NNW 19:09:03 20° NNW
